Regional Weather Roundup
Issued by NWS

Home | Current Version | Previous Version | Graphics & Text | Print | Product List | Glossary Off
Versions: 1 2 3 4 5 6 7 8 9 10 11 12 13 14 15 16 17 18 19 20 21 22 23 24 25 26 27 28 29 30 31 32 33 34 35 36 37 38 39 40 41 42 43 44 45 46 47 48 49 50

045
ASUS43 KDMX 231506
RWRIA

WEATHER ROUNDUP FOR IOWA
NATIONAL WEATHER SERVICE DES MOINES IA
900 AM CST MON JAN 23 2017

NOTE: "FAIR" INDICATES FEW OR NO CLOUDS BELOW 12,000 FEET WITH NO
SIGNIFICANT WEATHER AND/OR OBSTRUCTIONS TO VISIBILITY.

* - THESE STATIONS ARE NOT NWS STATIONS...THUS NOT UNDER NWS
QUALITY CONTROL.  THEY ALSO DO NOT REPORT WEATHER SUCH
AS PRECIPITATION OR FOG.

IAZ001>003-012>014-020>022-031>034-043>046-231600-
   NORTHWEST IOWA

CITY           SKY/WX    TMP DP  RH WIND       PRES   REMARKS
CARROLL *      CLOUDY    32  32 100 NW8       29.87R WCI  25
CHEROKEE *     CLOUDY    32  30  93 W6        29.89R WCI  26
DENISON *      CLOUDY    32  28  86 W9        29.87R WCI  24
LE MARS *      CLOUDY    32  28  86 W3        29.90R
ORANGE CITY *  CLOUDY    30  28  93 W9        29.87R WCI  22
SHELDON *      CLOUDY    32  32 100 W9        29.85R WCI  24
SIOUX CITY     CLOUDY    33  29  85 W5        29.90R WCI  29
STORM LAKE *   CLOUDY    32  28  86 W8        29.87R WCI  25
$$

IAZ055>058-069>071-079>083-090>094-231600-
   SOUTHWEST IOWA

CITY           SKY/WX    TMP DP  RH WIND       PRES   REMARKS
ATLANTIC *     CLOUDY    32  30  93 NW6       29.89R WCI  26
AUDUBON *      CLOUDY    32  28  86 NW6       29.89R WCI  26
CLARINDA *     CLOUDY    32  30  93 N6        29.91S WCI  26
COUNCIL BLFS * CLOUDY    32  30  93 NW6       29.89S WCI  26
CRESTON *      CLOUDY    30  30 100 NW9       29.88S WCI  22
HARLAN  *      CLOUDY    32  32 100 NW7       29.92R WCI  26
LAMONI         CLOUDY    31  29  92 NW8       29.87R WCI  23
RED OAK *      CLOUDY    32  28  86 N6        29.90S WCI  26
SHENANDOAH *   CLOUDY    32  30  93 N3        29.91S
$$

IAZ047>049-059>061-072>074-084-231600-
   CENTRAL IOWA

CITY           SKY/WX    TMP DP  RH WIND       PRES   REMARKS
AMES           CLOUDY    32  30  92 NW7       29.86R WCI  26
ANKENY *       CLOUDY    32  30  93 NW8       29.88R WCI  25
BOONE *        CLOUDY    32  32 100 NW8       29.85R WCI  25
CHARITON *     CLOUDY    32  30  93 NW7       29.87R FOG     WCI  26
DES MOINES     CLOUDY    33  29  85 N6        29.87R WCI  28
GRINNELL*      CLOUDY    32  30  93 NW6       29.85S WCI  26
KNOXVILLE *    CLOUDY    32  30  93 NW7       29.86R WCI  26
MARSHALLTOWN   CLOUDY    32  30  92 N7        29.84R WCI  26
NEWTON *       CLOUDY    32  30  93 N8        29.85R WCI  25
PELLA *        CLOUDY    32  31  95 NW6       29.88R WCI  26
PERRY *        CLOUDY    32  31  94 NW7       29.87R WCI  26
$$

IAZ004>006-015-016-023>025-035-036-231600-
   NORTH CENTRAL IOWA

CITY           SKY/WX    TMP DP  RH WIND       PRES   REMARKS
ALGONA *       CLOUDY    34  28  80 NW8       29.84R WCI  27
CLARION *      CLOUDY    32  32 100 N7        29.83R WCI  26
ESTHERVILLE    CLOUDY    31  29  92 NW9       29.84R WCI  23
FORT DODGE *   CLOUDY    32  27  80 W6        29.86R WCI  26
MASON CITY     CLOUDY    32  28  85 N8        29.82S WCI  25
FOREST CITY *  CLOUDY    32  32 100 NW7       29.81R WCI  26
WEBSTER CITY * CLOUDY    32 N/A N/A NW10      29.84R WCI  24
IOWA FALLS *   CLOUDY    32  30  92 NW12      29.84S WCI  23
$$

IAZ007>011-017>019-026>030-037>042-050>054-066-231600-
   NORTHEAST IOWA

CITY           SKY/WX    TMP DP  RH WIND       PRES   REMARKS
CEDAR RAPIDS   LGT SNOW  32  32 100 NW9       29.84R FOG     WCI  24
CHARLES CITY * CLOUDY    32  32 100 N8        29.83R WCI  25
CLINTON *      CLOUDY    36  35  96 NW8       29.82R WCI  30
DECORAH *      LGT SNOW  32  32 100 CALM      29.82R
DUBUQUE        CLOUDY    35  34  96 N6        29.81R WCI  30
MONTICELLO *   CLOUDY    36  34  93 NW7       29.83R WCI  30
OELWEIN *      CLOUDY    32  32 100 N5        29.84R FOG     WCI  27
WATERLOO       CLOUDY    33  29  85 MISG      29.84R
$$

IAZ064-065-067-068-078-231600-
   EAST CENTRAL IOWA

CITY           SKY/WX    TMP DP  RH WIND       PRES   REMARKS
DAVENPORT      CLOUDY    36  34  92 NW9       29.82S WCI  29
IOWA CITY      CLOUDY    35  33  92 NW8       29.86S FOG     WCI  29
MUSCATINE *    CLOUDY    37  34  87 NW9       29.85S WCI  31
QUAD CITIES    CLOUDY    38  34  85 NW7       29.82S WCI  33
$$

IAZ062-063-075>077-085>089-095>099-231600-
   SOUTHEAST IOWA

CITY           SKY/WX    TMP DP  RH WIND       PRES   REMARKS
BURLINGTON     CLOUDY    37  35  92 NW8       29.83R WCI  31
FAIRFIELD *    CLOUDY    34  34 100 NW8       29.85S FOG     WCI  27
FORT MADISON * CLOUDY    37  36  93 NW8       29.85S FOG     WCI  31
KEOKUK *       CLOUDY    37 N/A N/A NW9       29.84S WCI  31
OSKALOOSA *    CLOUDY    32  32  99 W6        29.87R FOG     WCI  26
CENTERVILLE *  CLOUDY    30  30 100 CALM      29.89R
OTTUMWA        CLOUDY    33  30  88 W6        29.86R FOG     WCI  28
WASHINGTON *   CLOUDY    36  36 100 NW8       29.86F FOG     WCI  29
$$

ABBREVIATIONS USED IN REMARKS
   TC - TEMPERATURES IN CELSIUS
  WCI - WIND CHILL INDEX
   HX - HEAT INDEX
  VSB - VISIBILITY
$$





USA.gov is the U.S. government's official web portal to all federal, state and local government web resources and services.